Theta_e
344 344 345 346 345 346 347 349 348 349 349 348 347 347 347 347 347 346 348 349 346 340 339 341 343 344 345 347 347 347 346 345 343 342 341 340 340 340 340 340 342 342 339 340 341 343 341 340 341 341 341 341 339 329 328 328 328 331 331 334 336 328
345 344 345 345 345 345 346 347 343 344 344 345 346 346 345 344 348 341 345 342 341 342 338 339 342 347 346 346 346 347 346 346 344 342 341 341 340 339 339 341 341 341 340 340 338 331 334 342 340 340 341 338 329 327 327 328 328 330 332 330 334 333
345 345 344 344 344 345 342 343 342 343 345 347 347 345 340 342 339 339 340 340 340 338 340 341 343 346 347 346 346 346 346 346 345 343 342 341 339 338 340 341 341 341 340 338 332 331 330 329 336 341 339 330 326 327 327 327 328 330 329 330 330 336
345 345 343 342 342 342 341 341 341 341 341 340 340 340 337 338 338 339 339 338 339 341 339 339 344 345 348 341 342 345 345 345 345 344 345 340 342 340 342 341 340 338 336 332 331 333 333 331 329 327 326 326 326 326 327 327 329 328 328 333 328 333
344 343 343 344 342 340 340 340 340 340 340 339 338 336 336 336 337 339 339 338 339 340 337 336 337 338 336 336 337 337 337 337 336 336 342 332 332 333 332 331 331 333 330 332 331 332 333 331 330 326 325 326 326 326 327 329 327 327 328 331 332 335
342 342 342 342 341 344 342 339 339 340 339 338 336 335 335 336 337 339 339 340 341 336 335 335 336 336 335 335 336 335 334 333 334 335 340 333 333 333 333 333 333 333 333 332 331 333 337 332 328 326 325 325 326 326 326 326 327 328 328 328 332 335
339 339 339 340 340 341 340 339 339 341 339 337 335 335 334 334 337 337 338 342 337 335 333 333 334 334 334 334 334 333 334 334 335 336 339 336 334 335 335 335 334 334 333 333 332 331 332 331 326 325 324 324 325 325 325 326 326 327 327 328 333 334
337 337 337 339 337 337 337 338 340 345 340 343 339 334 334 334 337 338 339 339 341 336 334 333 333 333 332 333 334 333 333 335 338 338 338 338 335 333 334 335 335 334 333 333 332 332 332 331 326 325 324 325 324 325 325 325 326 326 326 327 330 335
337 337 337 338 337 336 337 337 340 338 337 345 336 336 335 337 337 339 339 339 341 334 334 334 333 332 332 333 333 334 335 335 336 338 339 338 337 335 334 335 335 334 333 332 332 333 333 332 330 325 325 324 325 324 324 324 325 326 326 327 329 334
335 335 336 336 335 335 335 336 337 337 336 344 336 336 337 336 336 336 336 338 341 335 334 334 333 332 332 332 332 333 335 334 335 336 339 338 338 336 334 334 334 335 334 334 334 334 336 334 332 330 325 325 325 325 325 324 325 326 327 328 329 332
335 339 334 335 334 335 335 335 337 336 338 339 338 338 337 336 335 335 335 337 339 338 335 333 333 331 332 332 331 332 333 333 334 335 336 338 338 337 335 334 334 334 334 333 334 334 335 334 332 329 328 325 325 325 325 325 326 326 327 328 328 330
336 337 335 334 337 334 335 335 338 337 338 337 339 337 336 336 337 335 337 338 338 338 339 334 333 331 332 331 330 331 332 332 333 334 335 336 336 337 336 335 335 335 334 334 334 334 334 333 332 329 327 326 325 325 325 325 326 326 327 328 328 329
336 337 334 334 335 334 334 336 337 337 339 340 339 337 335 335 336 335 337 338 337 338 339 334 334 334 337 331 331 331 330 333 333 334 334 335 335 335 336 336 335 337 335 334 333 332 333 332 331 328 327 327 326 325 325 325 326 326 327 328 328 329
336 335 334 334 335 333 334 334 337 337 341 340 338 336 337 335 336 336 337 338 337 339 340 336 334 334 335 332 332 332 331 331 333 334 335 335 334 335 334 334 335 336 337 339 332 331 332 330 328 328 328 328 326 326 326 325 326 326 327 328 328 328
338 334 337 334 336 333 333 334 336 335 338 338 337 336 335 334 335 335 336 337 338 341 339 338 337 335 334 333 332 332 332 333 334 335 335 336 335 335 334 334 336 333 332 333 332 335 331 330 329 329 328 329 327 326 326 325 326 326 326 327 328 328
336 334 335 334 334 333 333 333 334 337 336 336 337 335 334 335 335 335 336 336 337 341 338 337 338 336 334 333 333 333 333 335 336 336 335 335 335 334 334 333 333 332 333 333 336 333 334 331 330 331 331 330 328 330 327 326 326 326 327 327 327 327
334 334 335 334 334 333 333 332 333 336 334 334 335 334 334 334 335 335 335 335 336 341 337 337 337 338 336 334 333 333 334 335 337 336 335 334 335 335 334 332 332 334 333 332 332 332 333 333 332 333 333 332 331 332 329 328 327 327 327 326 326 327
333 334 335 335 335 333 334 333 333 334 336 332 333 333 333 333 335 335 334 335 336 340 338 336 336 336 336 337 336 335 334 335 336 335 334 334 334 334 333 333 332 332 336 334 332 332 332 333 333 333 333 334 333 333 332 331 330 332 328 326 327 326
333 333 335 335 335 335 334 332 331 332 334 332 332 332 332 332 334 336 335 335 336 339 339 335 335 336 335 336 335 335 334 334 335 333 333 333 332 334 334 332 332 332 336 335 334 332 331 332 333 333 332 332 333 333 333 332 333 332 329 328 327 328
334 335 335 334 335 333 331 331 330 330 330 331 330 333 332 333 334 335 337 337 337 337 337 335 334 334 335 336 333 334 334 334 334 333 332 331 331 332 333 332 332 333 334 336 333 332 332 334 331 329 332 333 331 331 332 334 334 333 332 329 329 330
334 335 334 333 333 332 329 327 327 329 327 329 330 331 332 332 335 336 337 337 338 338 336 336 335 333 333 338 334 333 334 333 333 333 331 331 332 332 332 334 334 335 334 333 332 330 332 331 328 329 328 328 329 330 334 337 333 333 333 333 331 331
334 335 334 334 334 333 328 327 325 326 323 325 330 330 329 329 333 335 336 336 337 338 337 335 336 334 334 333 332 333 333 333 333 332 332 332 331 335 334 332 332 332 331 331 330 331 331 329 326 325 324 324 327 328 331 332 333 333 334 334 333 333
334 334 335 335 335 333 330 328 324 325 327 326 327 330 328 332 335 332 333 335 336 336 337 335 335 335 333 333 332 332 332 334 333 333 332 332 332 331 331 331 330 331 329 328 330 331 331 329 327 323 325 323 320 321 325 326 329 332 333 334 334 333
334 335 335 335 336 332 330 328 329 328 329 329 329 332 330 330 330 331 331 332 334 334 336 336 335 335 334 333 332 331 332 332 332 333 333 331 329 330 330 330 329 330 329 328 327 327 332 330 327 328 322 320 320 320 319 321 321 327 329 333 334 333
334 334 335 336 336 332 332 327 329 330 330 330 329 325 328 329 329 331 332 329 332 333 333 335 336 336 336 334 333 332 331 331 332 332 333 331 329 330 331 331 331 330 330 330 327 324 328 330 329 331 326 321 319 318 318 320 320 325 326 333 332 333
334 334 334 335 334 333 332 328 325 325 324 323 324 324 325 326 327 328 329 329 331 333 333 333 334 336 338 337 335 335 334 333 333 333 333 332 332 330 329 330 330 330 330 329 329 327 326 329 330 331 329 327 325 321 321 323 322 320 325 330 330 332
334 334 334 334 334 335 330 327 327 326 325 324 324 323 322 323 325 326 328 329 329 330 332 332 332 334 335 338 336 335 335 335 334 333 335 332 331 331 331 331 332 330 330 330 329 327 326 326 327 329 330 330 330 330 326 325 321 320 320 324 326 329
334 334 334 334 333 334 331 327 325 325 326 323 324 325 324 326 325 329 327 328 328 329 330 333 332 332 333 335 336 334 335 335 335 334 335 333 332 331 331 331 333 331 331 331 329 328 328 327 327 325 328 328 329 331 329 329 326 325 321 319 323 327
332 333 332 333 333 333 332 328 327 326 326 328 326 327 328 329 329 331 328 328 327 329 329 331 333 333 332 333 338 335 334 334 335 335 337 334 333 332 331 331 331 331 330 330 330 329 328 328 326 327 326 326 328 328 328 329 329 326 324 320 322 321
330 330 330 330 333 331 331 331 327 325 326 326 329 329 328 327 327 326 327 327 328 328 329 330 331 333 333 333 335 337 334 334 335 335 337 336 334 332 331 331 331 331 331 330 330 331 330 329 328 328 327 327 326 326 326 325 326 326 325 325 322 322
329 329 329 330 331 330 330 330 328 327 326 326 326 327 326 326 325 325 326 327 327 328 328 329 330 332 332 333 333 335 335 334 334 336 337 336 334 334 333 333 332 331 331 330 330 330 330 330 330 328 328 327 327 327 326 325 325 325 326 323 322 323
327 326 326 328 329 329 331 331 329 328 327 327 326 326 325 325 324 325 325 326 326 326 326 328 328 329 330 332 333 333 335 334 334 334 335 336 335 335 335 334 332 332 331 331 331 330 330 329 329 329 329 329 328 328 327 326 326 327 325 325 324 324
325 324 324 325 327 328 328 329 330 328 327 328 326 326 326 325 325 325 325 326 325 325 325 326 327 328 329 330 333 332 332 333 333 334 334 335 335 336 335 334 333 332 332 331 330 330 329 329 330 329 329 330 330 329 329 330 329 328 328 329 327 324
325 323 324 323 325 325 326 327 328 328 328 329 327 326 327 326 326 327 327 327 327 327 327 327 328 328 330 330 332 333 334 333 333 333 335 335 335 335 336 335 335 333 332 333 332 331 331 331 330 331 331 330 329 330 330 331 331 330 329 328 326 325
323 321 322 323 323 324 324 325 326 327 327 326 326 326 326 327 327 328 328 328 327 326 327 328 328 330 332 331 331 332 332 332 332 333 334 333 334 337 336 334 333 332 333 333 332 332 331 331 330 330 330 330 330 330 330 331 330 330 330 330 329 328
322 322 320 323 323 323 323 323 323 324 325 326 328 326 325 326 324 325 325 326 325 325 326 327 328 329 329 331 330 330 332 333 332 332 332 332 331 332 332 332 331 331 331 333 332 332 332 332 331 331 330 331 330 330 332 331 331 331 330 331 330 330
321 320 320 322 322 322 322 321 321 322 322 323 325 324 324 323 323 322 323 323 323 323 324 325 326 329 328 328 328 329 329 330 330 330 330 331 331 332 332 331 330 330 330 331 332 332 333 331 331 332 332 331 331 331 332 332 331 331 331 331 330 330
Wind_Speed
4 5 5 5 5 4 7 11 9 10 10 9 8 7 7 7 7 7 5 8 9 6 5 5 5 2 6 4 6 7 8 7 6 6 7 7 7 7 9 10 11 12 12 10 8 8 9 10 10 11 11 10 9 5 4 4 4 3 3 3 2 2
5 5 5 5 4 4 5 6 4 4 4 5 6 6 4 3 5 5 8 6 5 4 4 4 5 4 3 2 3 6 7 7 6 6 6 6 6 7 9 10 10 13 12 9 8 5 4 7 11 10 10 10 6 4 4 4 4 3 3 2 2 3
5 5 5 5 4 5 5 4 4 4 4 6 5 4 3 4 5 5 5 5 4 4 4 4 3 3 3 3 3 5 6 6 6 5 5 6 6 6 9 10 11 12 11 8 5 4 4 3 3 9 8 6 4 4 4 4 4 3 3 3 3 5
6 4 5 4 5 5 4 4 4 4 5 5 5 4 4 4 4 4 4 4 4 4 4 3 4 4 5 3 2 3 5 6 5 4 7 5 6 6 8 9 9 10 7 4 4 4 4 3 3 4 4 4 4 4 4 3 3 3 3 3 3 7
5 4 5 4 5 4 4 4 4 4 4 4 4 4 4 4 4 4 4 4 4 3 4 4 4 4 4 3 4 3 3 4 3 4 5 3 2 3 4 5 4 5 5 5 4 4 3 3 4 4 4 3 3 3 3 3 3 3 3 3 4 6
5 4 4 4 4 5 5 4 4 4 5 4 4 4 3 4 4 4 4 3 4 4 4 4 3 4 4 3 3 3 2 3 3 3 3 1 2 3 3 4 4 4 3 4 5 4 3 4 4 4 3 3 3 3 2 3 3 3 3 3 4 6
5 4 4 4 4 4 4 4 4 4 4 4 4 4 3 3 3 3 3 2 4 3 3 3 2 3 3 3 2 2 2 2 2 2 2 2 2 2 3 3 4 3 3 4 4 4 3 4 5 5 4 4 3 3 3 3 3 4 3 3 4 8
5 5 4 5 5 4 3 4 4 4 4 5 5 4 4 3 2 3 2 2 1 3 4 3 2 2 3 2 1 1 1 1 2 1 1 2 3 3 3 3 3 4 4 2 5 4 3 4 4 5 5 5 4 4 4 4 4 4 4 4 3 6
5 5 5 5 5 4 4 4 3 4 4 5 4 4 4 3 3 3 3 2 2 3 3 4 4 3 3 2 1 1 1 2 2 2 3 2 3 4 3 3 3 3 3 4 5 2 4 3 3 4 5 5 5 5 4 4 4 4 4 4 4 4
6 6 5 5 4 4 4 5 4 4 4 4 4 4 4 3 3 4 2 2 3 4 4 5 4 4 4 3 2 1 1 2 3 3 3 4 3 3 4 4 4 4 4 5 5 4 3 1 2 3 4 5 5 5 5 5 5 5 4 4 4 4
6 5 5 5 4 4 4 4 4 4 4 4 4 4 4 4 4 3 4 3 3 4 4 4 4 5 4 4 3 3 3 2 3 3 2 3 3 2 3 3 3 3 3 3 3 3 3 3 2 3 4 5 5 4 5 4 4 4 4 4 4 4
5 5 5 5 5 4 4 4 4 4 4 4 4 4 4 4 5 5 5 4 4 4 4 4 5 4 5 4 4 4 4 3 4 3 2 3 3 2 3 3 3 3 4 3 4 3 3 3 3 3 3 5 4 4 4 4 4 4 4 4 4 4
5 5 6 6 6 5 4 4 5 4 4 4 4 4 4 5 4 4 4 5 4 4 5 6 5 5 5 5 4 4 4 4 4 3 3 3 3 3 3 3 4 3 3 3 3 4 3 3 4 3 4 4 4 4 4 3 4 4 5 4 4 4
5 6 6 5 5 5 5 5 4 4 5 4 4 4 5 4 4 4 4 5 4 5 5 5 6 5 4 4 4 4 4 4 4 4 3 3 3 3 3 3 4 3 4 3 3 3 2 3 3 2 3 4 4 4 3 4 4 5 4 4 4 4
6 5 4 5 5 5 4 5 5 4 4 5 4 4 4 4 4 4 4 4 5 5 5 4 4 5 5 4 4 3 4 4 3 3 4 4 4 3 4 4 2 3 4 3 2 2 3 3 3 3 3 4 4 4 4 4 4 4 4 4 4 4
5 5 4 5 4 4 4 4 5 5 4 5 5 5 4 4 5 4 5 4 4 4 5 5 5 4 4 4 5 4 4 4 4 3 3 3 3 4 3 2 1 2 3 4 3 2 0 3 2 4 4 4 4 5 5 4 5 4 3 3 4 4
6 6 5 4 4 3 3 4 4 4 5 5 5 5 4 4 4 5 5 4 4 4 5 5 5 4 4 3 3 4 4 4 4 4 4 3 4 3 3 3 3 1 1 2 2 3 1 2 4 4 3 4 4 5 5 6 5 4 3 4 4 4
4 4 5 5 4 4 4 3 3 3 4 4 4 4 4 4 5 5 4 5 5 4 4 5 4 4 4 3 3 3 3 4 4 3 3 3 4 3 4 4 4 2 1 2 1 2 3 2 2 2 3 3 4 5 5 5 4 4 5 5 5 6
4 4 4 4 4 3 2 2 1 3 3 3 3 3 3 4 4 4 5 5 4 4 4 5 5 4 4 4 3 2 3 3 3 3 3 3 3 3 3 3 4 4 1 1 2 1 2 2 2 3 3 4 3 4 4 4 3 4 5 5 5 5
4 5 5 4 4 3 3 3 3 2 2 3 3 3 3 4 4 4 5 5 5 4 4 4 4 4 4 3 3 2 3 3 3 3 3 4 5 4 6 5 4 4 4 1 2 2 1 1 2 3 4 5 4 4 4 4 5 6 5 5 5 4
6 7 6 5 5 6 4 3 1 4 4 4 4 4 4 4 5 4 4 5 5 5 5 4 4 4 4 4 3 2 2 3 2 3 2 3 4 6 3 4 3 1 3 3 1 2 2 1 2 4 3 5 6 5 5 4 6 5 6 5 4 5
6 7 7 6 5 6 4 4 4 4 3 3 4 4 4 4 4 4 4 4 4 5 5 5 4 4 4 4 4 2 1 1 3 2 2 2 5 3 3 3 3 2 2 1 2 1 2 2 2 1 3 5 4 4 4 4 5 5 6 5 5 5
5 5 6 6 6 5 3 2 2 3 4 2 1 0 1 1 3 4 4 4 4 5 6 5 6 5 5 4 4 4 4 3 2 2 3 2 5 6 4 5 4 4 3 0 1 2 2 2 3 1 1 1 4 4 4 4 2 4 5 5 4 5
6 6 6 6 6 2 2 3 3 4 3 3 2 2 2 2 2 3 3 4 3 4 5 6 6 6 5 5 6 6 4 4 4 4 3 3 6 6 4 4 4 4 2 2 1 1 1 4 3 2 4 2 2 1 4 3 4 4 1 4 5 5
6 6 5 6 5 4 4 3 3 4 3 4 4 3 2 0 0 1 2 3 5 4 5 5 5 6 6 6 6 5 5 4 4 5 5 7 7 8 5 5 5 4 5 5 4 2 1 3 4 2 4 0 3 1 3 3 4 5 2 1 4 5
5 5 5 5 5 5 4 5 4 3 2 1 1 1 3 5 3 3 4 1 2 4 5 5 5 5 5 5 6 6 6 6 6 6 7 8 6 4 5 5 6 6 5 5 4 3 3 1 3 4 4 2 4 1 2 3 1 4 5 2 3 3
6 6 5 5 6 5 4 3 4 5 4 4 4 3 2 3 4 3 3 3 2 2 4 4 5 5 6 6 6 6 7 7 6 6 5 5 5 6 5 5 4 5 5 4 4 5 5 4 1 3 4 5 4 3 2 1 2 2 5 5 4 2
6 6 6 6 6 6 6 4 4 3 4 4 5 5 4 4 3 3 3 4 2 3 3 3 4 4 4 5 5 6 6 5 5 5 5 6 6 5 4 3 5 5 4 4 5 6 6 3 4 3 1 3 4 4 4 3 4 2 3 4 8 5
7 7 6 7 7 6 6 6 6 5 4 4 5 5 3 1 1 2 3 2 2 3 2 3 3 4 4 4 4 5 5 5 5 5 5 5 5 5 6 5 5 5 5 5 5 5 4 5 4 5 3 2 2 3 3 4 4 4 4 3 6 4
7 6 7 7 7 7 7 6 6 6 6 5 4 3 3 4 3 3 3 4 3 3 3 3 3 3 4 4 4 4 4 5 5 5 5 6 5 5 5 6 6 6 6 6 5 5 6 5 4 4 4 3 2 1 0 1 3 3 3 5 6 6
8 7 7 8 7 8 7 7 7 7 7 6 6 5 4 4 3 3 4 4 4 4 3 3 3 3 4 4 4 3 4 4 3 4 5 5 6 6 6 6 5 6 7 7 5 6 6 5 4 4 4 4 5 5 5 4 3 3 3 3 2 5
7 7 6 7 7 7 7 7 7 8 8 7 6 5 6 5 5 5 4 4 2 2 3 2 3 4 4 5 5 5 6 6 6 6 6 5 5 6 5 5 5 6 6 6 5 5 5 5 6 5 5 5 5 5 4 5 4 3 4 3 3 5
8 7 7 7 8 8 7 7 7 7 7 6 6 6 5 5 4 4 4 4 3 3 2 2 4 4 5 5 4 5 5 4 5 5 5 5 5 4 4 5 5 5 4 5 6 5 5 6 6 6 5 4 4 4 5 4 4 4 3 3 3 4
9 8 7 7 7 7 8 8 7 7 7 6 6 6 6 6 5 5 5 3 3 4 3 4 4 5 4 4 5 5 5 5 4 5 5 3 3 5 6 6 5 5 5 5 4 6 6 6 5 6 4 5 5 5 5 4 5 4 4 3 3 4
8 7 7 7 6 7 7 6 6 6 6 5 6 5 6 6 5 5 5 5 4 3 3 4 4 4 3 4 4 4 4 5 5 6 5 6 7 5 5 4 3 4 4 3 4 4 5 5 6 7 7 7 6 5 5 4 4 5 4 5 5 3
10 9 8 8 8 8 7 6 5 6 6 6 5 5 4 3 4 5 5 5 5 4 4 3 4 3 3 2 3 4 4 4 4 5 5 5 4 4 4 4 4 4 6 5 5 6 5 5 7 8 7 6 6 8 6 6 5 4 5 5 4 3
7 5 7 8 8 6 6 5 6 6 5 5 5 6 6 6 6 4 5 5 5 4 4 2 3 2 3 1 2 3 3 4 4 4 4 3 4 5 5 5 5 6 7 6 5 6 5 6 6 6 7 8 6 7 7 5 6 6 6 4 4 4
Wind_Direction
102 108 118 121 123 126 137 130 128 130 126 121 121 122 123 112 103 114 89 77 72 69 64 58 64 80 124 123 124 117 112 115 110 105 100 98 97 98 96 93 93 90 87 79 69 68 116 127 129 129 131 131 120 102 117 109 112 120 146 169 183 274
110 116 120 118 119 114 110 111 92 88 96 110 116 99 81 69 66 50 63 60 63 68 68 62 49 83 70 126 119 119 117 115 110 101 94 95 102 109 102 99 97 94 91 86 75 59 49 133 143 140 135 126 114 121 116 122 128 141 153 186 188 247
118 114 114 112 106 112 105 107 98 99 98 108 99 77 61 71 71 76 70 70 70 73 68 72 83 99 100 131 135 123 113 111 105 100 101 98 108 115 106 101 96 95 93 81 72 59 71 51 115 140 125 117 125 110 115 123 138 151 162 216 231 166
129 114 111 110 103 104 104 99 104 95 95 95 93 87 87 80 78 84 83 84 79 73 64 49 100 112 94 54 57 104 98 85 84 86 78 55 57 90 92 88 92 92 92 85 77 60 65 70 85 87 111 124 120 126 132 149 159 165 174 212 194 159
119 117 115 114 110 112 107 97 84 89 90 93 93 91 86 86 86 84 85 88 80 72 57 40 42 57 63 63 58 39 45 73 59 46 57 57 67 66 83 84 68 78 95 109 95 101 86 85 109 103 109 114 112 125 142 152 170 172 196 234 211 182
108 101 104 109 124 134 123 117 111 117 100 88 94 92 85 90 93 83 94 98 83 74 66 49 43 68 56 66 65 41 17 70 79 58 46 59 50 68 71 80 84 79 92 100 109 116 118 120 125 124 121 115 118 128 160 179 184 182 205 240 254 198
123 117 116 120 114 113 126 129 128 131 120 112 108 109 100 84 81 70 56 72 101 92 84 71 56 62 77 56 65 41 13 10 67 71 46 48 32 46 72 68 65 50 66 90 106 112 112 111 127 134 139 145 140 150 177 199 197 192 219 238 249 179
135 134 137 129 126 131 131 126 146 140 121 145 129 126 134 126 110 102 69 8 94 135 138 123 112 90 92 72 63 48 1 354 357 4 25 45 14 14 44 55 42 25 16 67 139 134 123 113 119 134 150 165 168 170 184 207 206 199 219 243 253 199
138 141 145 138 133 143 141 132 137 133 151 165 135 141 137 128 123 93 123 207 148 144 144 152 154 154 110 115 91 92 1 325 328 324 342 339 38 359 6 22 25 360 357 3 353 60 109 111 125 147 164 178 178 179 188 202 210 205 224 232 229 245
150 154 147 135 142 145 150 139 149 165 178 159 156 139 133 130 150 155 177 212 173 162 169 168 164 148 148 163 134 120 223 298 306 322 325 312 345 1 346 345 352 358 357 348 343 325 356 94 146 181 185 182 187 186 183 188 199 206 210 220 233 245
158 156 144 148 153 158 149 150 152 161 169 157 156 145 146 142 175 175 205 194 172 174 162 164 161 159 157 160 161 181 220 226 265 259 259 275 319 321 329 312 316 311 309 305 290 299 303 300 231 200 202 192 193 176 191 195 203 200 208 220 220 226
162 154 155 156 160 159 168 159 154 146 170 163 155 159 156 156 170 197 202 188 175 176 166 170 162 163 169 170 182 192 214 203 235 241 215 231 245 249 244 265 270 257 256 229 268 280 261 238 242 215 182 208 182 189 196 199 206 203 209 212 218 232
161 164 165 167 166 171 165 162 156 161 167 170 173 158 168 175 175 189 189 188 174 170 167 169 174 170 172 181 179 189 206 218 223 223 217 218 222 223 234 256 261 268 269 255 264 268 249 215 230 211 181 197 187 201 189 195 215 215 211 213 215 218
172 174 175 162 158 165 171 165 157 163 169 166 182 171 187 171 175 185 186 183 173 176 166 171 166 167 160 163 181 196 203 225 219 206 204 196 221 211 245 249 260 252 260 245 262 266 200 230 227 159 189 185 190 206 180 204 213 215 213 216 213 212
179 181 174 166 164 174 167 163 160 168 174 171 186 186 184 168 179 188 187 185 186 176 154 154 168 163 167 165 173 205 225 237 219 205 207 207 203 214 196 236 230 237 263 291 270 237 207 206 248 191 184 182 200 186 184 214 219 223 214 217 207 216
175 177 184 179 173 177 173 169 166 169 177 179 182 191 188 184 181 183 192 191 190 175 145 149 151 153 155 176 175 189 219 237 232 221 216 200 189 207 200 212 239 192 280 295 320 333 83 210 209 241 181 178 192 186 191 202 213 220 222 217 224 218
181 184 175 178 164 179 172 175 172 169 181 185 187 194 190 175 174 186 190 190 186 179 154 157 155 144 138 165 190 193 204 219 226 221 224 183 202 173 154 206 235 220 112 286 311 289 322 180 214 228 216 174 188 189 199 199 205 203 190 209 226 231
187 187 179 191 181 173 183 172 165 163 179 192 204 203 185 169 180 186 185 191 185 177 157 148 148 149 130 160 186 211 192 195 201 203 211 185 199 142 173 192 233 232 186 189 223 234 253 281 248 265 270 225 185 204 213 210 198 189 191 207 211 225
183 186 183 170 174 172 161 111 116 162 176 202 221 221 194 188 190 176 189 188 178 178 156 147 151 144 139 136 107 109 117 122 126 141 163 185 166 161 159 171 212 248 162 197 179 196 306 288 319 312 299 286 302 221 220 210 195 194 198 205 209 217
180 185 168 158 157 149 134 148 146 109 146 219 216 210 210 210 190 190 188 179 174 169 153 151 150 138 134 122 110 111 102 96 111 115 153 182 198 187 197 195 221 217 253 172 104 115 74 16 335 308 283 293 271 271 244 204 202 206 200 204 212 198
180 177 172 162 167 157 152 128 105 189 193 190 194 195 197 201 200 197 182 179 171 167 156 152 150 139 147 143 115 105 93 94 75 120 126 264 227 224 188 187 180 138 220 262 320 95 118 119 358 306 278 258 277 238 244 203 212 209 210 211 198 207
170 182 186 181 173 176 176 175 163 178 164 164 181 184 196 190 193 189 181 180 176 169 167 167 163 157 149 151 146 129 105 141 177 141 139 156 286 236 166 148 141 127 47 193 253 158 169 117 357 221 315 325 318 294 238 220 217 223 218 213 207 212
179 183 188 186 181 183 184 147 132 172 153 147 249 159 154 162 157 161 182 186 182 179 175 180 176 169 164 174 157 150 192 180 215 189 200 169 232 215 180 181 171 178 187 68 238 254 167 174 219 158 178 316 306 349 331 335 273 246 222 216 199 220
187 190 183 191 191 174 144 127 99 117 83 91 157 145 96 56 90 123 178 196 198 191 188 184 181 178 181 176 169 187 192 183 192 203 185 199 239 246 176 184 184 202 145 232 283 299 194 170 152 125 317 277 254 93 322 302 318 291 247 225 209 219
190 191 186 192 180 157 130 87 81 73 81 80 44 38 73 82 135 214 194 190 210 190 195 196 193 189 186 183 180 181 185 204 194 201 189 213 213 225 208 196 182 179 190 200 242 251 293 187 188 173 150 88 328 13 231 269 345 285 352 258 220 221
186 187 187 186 166 161 165 155 134 130 121 94 105 106 166 197 216 221 219 240 216 199 192 189 192 193 199 190 190 187 190 191 199 193 193 202 207 181 193 182 193 194 207 214 219 185 277 240 210 190 189 159 173 206 305 291 34 310 321 253 309 277
183 185 182 181 172 169 164 168 176 179 175 178 186 230 217 208 186 220 212 243 232 230 204 194 194 190 189 195 188 186 190 192 187 185 185 178 191 207 200 194 169 186 210 183 167 229 235 250 333 223 207 205 197 209 151 1 305 331 333 321 341 328
180 186 188 181 180 177 175 179 176 182 183 181 188 212 204 210 202 186 183 229 236 248 231 198 193 198 196 196 186 186 188 192 188 183 181 189 202 200 185 185 185 190 182 183 186 205 238 196 218 277 176 198 222 207 191 197 174 211 235 286 307 313
182 185 188 185 186 185 181 179 182 179 195 202 194 213 201 198 177 225 242 298 278 265 255 243 210 199 202 200 203 193 185 190 196 197 200 200 202 186 194 184 181 185 197 203 195 208 205 221 194 232 242 280 168 212 193 200 178 169 190 238 281 262
188 189 185 186 186 190 189 177 178 182 190 201 197 198 165 194 208 180 217 245 243 249 237 236 239 229 210 206 214 204 195 202 207 201 209 210 198 197 200 200 195 198 198 201 206 200 204 215 209 223 203 212 280 317 355 171 185 176 217 207 248 284
196 193 182 185 184 193 192 182 186 186 191 195 199 186 178 208 199 177 216 236 219 231 207 212 200 222 218 214 215 193 223 229 222 223 226 208 208 206 206 205 196 190 195 197 202 207 218 215 200 203 206 194 212 215 229 237 237 199 199 220 254 267
201 194 188 183 187 195 193 194 192 187 189 197 188 184 188 207 202 201 204 235 242 208 232 203 194 196 217 206 204 206 210 196 212 202 212 206 210 211 207 206 202 202 206 206 198 203 211 218 216 220 224 199 211 212 223 222 224 194 185 217 207 275
206 199 193 183 189 197 195 198 196 193 196 192 185 186 190 199 205 195 191 200 186 217 204 219 218 210 221 204 199 203 203 202 211 207 206 208 218 223 229 219 222 220 214 208 207 205 211 220 213 219 230 207 214 205 226 222 209 213 214 217 217 276
209 198 194 185 193 195 201 201 198 196 198 189 189 188 192 191 199 193 183 194 213 216 212 221 221 224 210 192 201 211 198 203 197 201 202 204 197 198 212 215 215 213 219 219 196 208 218 224 221 231 221 229 220 217 226 218 218 206 220 203 222 215
205 205 193 193 191 201 204 203 200 200 197 188 192 186 193 194 188 189 184 183 198 196 212 237 219 238 196 192 205 206 210 203 194 206 194 191 203 203 198 204 197 211 236 236 226 217 226 226 227 229 229 233 240 234 227 214 203 222 212 215 214 213
198 197 195 195 199 197 200 195 197 196 200 194 197 185 177 176 188 177 169 171 186 196 215 247 269 265 254 200 195 197 209 217 208 212 212 209 195 212 215 220 222 221 237 232 232 235 225 218 226 227 231 233 234 246 235 228 212 215 214 213 213 192
209 204 198 201 199 188 185 182 196 198 192 186 179 174 180 182 173 168 159 169 166 188 193 208 243 245 268 219 208 210 209 214 215 218 222 197 193 209 221 228 227 226 233 234 229 233 220 226 240 246 237 231 232 247 248 236 234 231 225 207 206 193